Tracking 29892 objects as of 21-Nov-2024
HD Live streaming from Space Station
objects crossing your sky now

THORAD DELTA 1 DEB

Track THORAD DELTA 1 DEB now!
10-day predictions


NORAD ID: 8299
Int'l Code: 1974-089BG
Perigee: 712.2 km
Apogee: 1,309.0 km
Inclination: 102.1 °
Period: 105.2 minutes
Semi major axis: 7381 km
RCS: 0.0568 m2 (small)
Launch date: November 15, 1974
Source: United States (US)
Launch site: AIR FORCE WESTERN TEST RANGE (AFWTR)

Note: This is SATELLITE DEBRIS
Your satellite tracking list
Your tracking list is empty




NASA's NSSDC Master Catalog

Two Line Element Set (TLE):
1  8299U 74089BG  24325.48269719  .00026831  00000-0  17503-1 0  9995
2  8299 102.1074 329.6043 0404270  14.9710 346.2993 13.68916589394896
Source of the keplerian elements: AFSPC